| time (UTC) | temp F | wind direction | speed MPH | gust MPH | rain 1hr in | rain 24hr in | rain mn in | humidity % | barometer mb |
| 20260504050016 | 38 | 0.0 | 2.0 | 0.00 | 0.01 | 0.00 | 70 | 1010.0 | |
| 20260504045016 | 38 | 0.0 | 1.0 | 0.00 | 0.01 | 0.00 | 70 | 1009.9 | |
| 20260504044036 | 38 | 0.0 | 0.0 | 0.00 | 0.01 | 0.00 | 69 | 1010.0 | |
| 20260504043016 | 39 | 0.0 | 0.0 | 0.00 | 0.01 | 0.00 | 68 | 1010.0 | |
| 20260504042016 | 39 | 0.0 | 0.0 | 0.00 | 0.01 | 0.00 | 68 | 1010.0 | |
| 20260504041016 | 39 | 0.0 | 0.0 | 0.00 | 0.01 | 0.00 | 67 | 1009.9 | |
| 20260504040016 | 39 | 0.0 | 0.0 | 0.00 | 0.01 | 0.01 | 67 | 1009.8 | |
| 20260504035017 | 40 | 0.0 | 0.0 | 0.00 | 0.01 | 0.01 | 67 | 1009.7 | |
| 20260504034036 | 40 | 0.0 | 0.0 | 0.00 | 0.01 | 0.01 | 66 | 1009.7 | |
| 20260504033016 | 40 | 0.0 | 1.0 | 0.00 | 0.01 | 0.01 | 65 | 1009.6 | |
| 20260504032016 | 41 | 315 | 1.0 | 2.0 | 0.00 | 0.01 | 0.01 | 64 | 1009.6 |
| 20260504031016 | 41 | 0.0 | 0.0 | 0.00 | 0.01 | 0.01 | 61 | 1009.6 | |
| 20260504030016 | 42 | 0.0 | 0.0 | 0.00 | 0.01 | 0.01 | 60 | 1009.6 | |
| 20260504025036 | 42 | 0.0 | 0.0 | 0.00 | 0.01 | 0.01 | 60 | 1009.5 | |
| 20260504024016 | 42 | 0.0 | 0.0 | 0.00 | 0.01 | 0.01 | 59 | 1009.4 | |
| 20260504023016 | 43 | 0.0 | 0.0 | 0.00 | 0.01 | 0.01 | 59 | 1009.5 | |
| 20260504022036 | 43 | 0.0 | 1.0 | 0.00 | 0.01 | 0.01 | 59 | 1009.5 | |
| 20260504021016 | 43 | 0.0 | 0.0 | 0.00 | 0.01 | 0.01 | 56 | 1009.4 | |
| 20260504020016 | 44 | 0.0 | 2.0 | 0.00 | 0.01 | 0.01 | 56 | 1009.3 | |
| 20260504015016 | 44 | 0.0 | 2.0 | 0.00 | 0.01 | 0.01 | 56 | 1009.4 | |
| 20260504014016 | 45 | 0.0 | 2.0 | 0.00 | 0.01 | 0.01 | 54 | 1009.2 | |
| 20260504013016 | 46 | 0.0 | 0.0 | 0.00 | 0.01 | 0.01 | 52 | 1009.1 | |
| 20260504012017 | 46 | 0.0 | 0.0 | 0.00 | 0.01 | 0.01 | 50 | 1009.1 | |
| 20260504011016 | 47 | 0.0 | 0.0 | 0.00 | 0.01 | 0.01 | 49 | 1009.0 | |
| 20260504010016 | 47 | 0.0 | 0.0 | 0.00 | 0.01 | 0.01 | 48 | 1008.9 | |
| 20260504005036 | 48 | 0.0 | 0.0 | 0.00 | 0.01 | 0.01 | 47 | 1008.7 | |
| 20260504004016 | 48 | 0.0 | 0.0 | 0.00 | 0.01 | 0.01 | 47 | 1008.6 | |
| 20260504003016 | 49 | 0.0 | 0.0 | 0.00 | 0.01 | 0.01 | 46 | 1008.6 | |
| 20260504002016 | 49 | 0.0 | 2.0 | 0.00 | 0.01 | 0.01 | 46 | 1008.5 | |
| 20260504001016 | 50 | 315 | 1.0 | 3.0 | 0.00 | 0.01 | 0.01 | 45 | 1008.3 |
| 20260504000016 | 50 | 315 | 1.0 | 4.0 | 0.00 | 0.01 | 0.01 | 44 | 1008.3 |
| 20260503235036 | 50 | 293 | 3.0 | 11.0 | 0.00 | 0.01 | 0.01 | 43 | 1008.2 |
| 20260503234016 | 51 | 315 | 3.0 | 8.0 | 0.00 | 0.01 | 0.01 | 42 | 1008.0 |
| 20260503233036 | 51 | 315 | 3.0 | 8.0 | 0.00 | 0.01 | 0.01 | 42 | 1007.9 |
| 20260503232016 | 51 | 293 | 4.0 | 10.0 | 0.00 | 0.01 | 0.01 | 41 | 1007.9 |
| 20260503231016 | 51 | 315 | 5.0 | 10.0 | 0.00 | 0.01 | 0.01 | 41 | 1007.7 |
| 20260503230016 | 51 | 315 | 6.0 | 15.0 | 0.00 | 0.01 | 0.01 | 40 | 1007.6 |
| 20260503225016 | 52 | 293 | 6.0 | 16.0 | 0.00 | 0.01 | 0.01 | 39 | 1007.5 |
| 20260503224036 | 52 | 315 | 6.0 | 15.0 | 0.00 | 0.01 | 0.01 | 39 | 1007.4 |
| 20260503223037 | 52 | 315 | 4.0 | 9.0 | 0.00 | 0.01 | 0.01 | 41 | 1007.2 |
| 20260503222016 | 52 | 315 | 5.0 | 10.0 | 0.00 | 0.01 | 0.01 | 40 | 1007.0 |
| 20260503221016 | 52 | 315 | 5.0 | 12.0 | 0.00 | 0.01 | 0.01 | 40 | 1007.0 |
| 20260503220016 | 52 | 315 | 7.0 | 17.0 | 0.00 | 0.01 | 0.01 | 39 | 1006.9 |
| 20260503215016 | 52 | 293 | 6.0 | 15.0 | 0.00 | 0.01 | 0.01 | 39 | 1006.9 |
| 20260503214016 | 52 | 315 | 7.0 | 17.0 | 0.00 | 0.01 | 0.01 | 39 | 1006.7 |
| 20260503213016 | 52 | 315 | 7.0 | 17.0 | 0.00 | 0.01 | 0.01 | 40 | 1006.6 |
| 20260503212036 | 53 | 315 | 6.0 | 15.0 | 0.00 | 0.01 | 0.01 | 38 | 1006.5 |
| 20260503211015 | 53 | 315 | 7.0 | 15.0 | 0.00 | 0.01 | 0.01 | 40 | 1006.4 |
| 20260503210015 | 53 | 315 | 6.0 | 19.0 | 0.00 | 0.01 | 0.01 | 39 | 1006.2 |
| 20260503205016 | 53 | 270 | 5.0 | 10.0 | 0.00 | 0.01 | 0.01 | 39 | 1006.0 |
| 20260503204036 | 53 | 315 | 5.0 | 14.0 | 0.00 | 0.01 | 0.01 | 39 | 1005.9 |
| 20260503203015 | 53 | 338 | 6.0 | 14.0 | 0.00 | 0.01 | 0.01 | 39 | 1005.8 |
| 20260503202016 | 53 | 315 | 7.0 | 16.0 | 0.00 | 0.01 | 0.01 | 39 | 1005.7 |
| 20260503201016 | 53 | 293 | 7.0 | 15.0 | 0.00 | 0.01 | 0.01 | 38 | 1005.7 |
| 20260503200015 | 53 | 315 | 5.0 | 13.0 | 0.00 | 0.01 | 0.01 | 39 | 1005.7 |
| 20260503195015 | 53 | 338 | 6.0 | 14.0 | 0.00 | 0.01 | 0.01 | 41 | 1005.6 |
| 20260503194015 | 53 | 315 | 4.0 | 10.0 | 0.00 | 0.01 | 0.01 | 42 | 1005.7 |
| 20260503193015 | 53 | 315 | 5.0 | 11.0 | 0.00 | 0.01 | 0.01 | 42 | 1005.7 |
| 20260503192015 | 53 | 315 | 5.0 | 12.0 | 0.00 | 0.01 | 0.01 | 43 | 1005.8 |
| 20260503191015 | 52 | 315 | 5.0 | 11.0 | 0.00 | 0.01 | 0.01 | 43 | 1005.8 |
| 20260503190016 | 53 | 315 | 6.0 | 14.0 | 0.00 | 0.01 | 0.01 | 44 | 1005.8 |
| 20260503185015 | 53 | 338 | 7.0 | 13.0 | 0.00 | 0.01 | 0.01 | 45 | 1005.8 |
| 20260503184015 | 53 | 315 | 7.0 | 13.0 | 0.00 | 0.01 | 0.01 | 47 | 1005.8 |
| 20260503183015 | 52 | 315 | 8.0 | 16.0 | 0.00 | 0.01 | 0.01 | 47 | 1005.9 |
| 20260503182015 | 52 | 338 | 7.0 | 16.0 | 0.00 | 0.01 | 0.01 | 48 | 1005.9 |
| 20260503181015 | 52 | 315 | 6.0 | 15.0 | 0.00 | 0.01 | 0.01 | 50 | 1006.0 |
| 20260503180017 | 51 | 315 | 6.0 | 16.0 | 0.00 | 0.01 | 0.01 | 51 | 1006.0 |
| 20260503175018 | 51 | 315 | 7.0 | 16.0 | 0.00 | 0.01 | 0.01 | 53 | 1006.1 |
| 20260503174017 | 51 | 315 | 7.0 | 16.0 | 0.00 | 0.01 | 0.01 | 54 | 1006.1 |
| 20260503173017 | 51 | 338 | 7.0 | 14.0 | 0.00 | 0.01 | 0.01 | 55 | 1006.0 |
| 20260503172017 | 50 | 338 | 8.0 | 17.0 | 0.00 | 0.02 | 0.01 | 55 | 1006.0 |
| 20260503171017 | 51 | 338 | 9.0 | 21.0 | 0.00 | 0.02 | 0.01 | 54 | 1006.0 |
| 20260503131017 | 42 | 315 | 3.0 | 9.0 | 0.01 | 0.02 | 0.01 | 89 | 1006.6 |
| 20260503081016 | 44 | 338 | 1.0 | 3.0 | 0.00 | 0.09 | 0.00 | 87 | 1008.1 |
| 20260503072016 | 44 | 315 | 1.0 | 4.0 | 0.00 | 0.09 | 0.00 | 88 | 1008.2 |
| 20260503071016 | 44 | 315 | 2.0 | 4.0 | 0.00 | 0.09 | 0.00 | 88 | 1008.4 |